Location: Newark
(40.9833°N, 0.0333°W)
Time: 02:25:36
(UTC+00:00)

Altair - Pass Details

Date: 29 October 2020
Orbit: 1502 x 1682 km, 47.2° (Epoch: 02 December)

Event Time Altitude Azimuth Distance (km) Brightness Sun altitude
Rises 05:25:37 0° 244° (WSW) 4,638 - -12.3°
Exits shadow 05:27:40 - 245° (WSW) 3,972 9.2 -11.9°
Reaches altitude 10° 05:28:36 10° 245° (WSW) 3,670 9.0 -11.7°
Maximum altitude 05:37:54 85° 335° (NNW) 1,556 7.5 -10.0°
Drops below altitude 10° 05:47:34 10° 64° (ENE) 3,803 10.5 -8.2°
Sets 05:50:43 0° 66° (ENE) 4,814 11.1 -7.6°
